Back to Top

Language: 

My Weather Underground Personal Weather Station Historical Data with Graphs...

Delerius Weather Station Historical Data
Daily Summary for July 1, 2017 Units:  English    Metric   Both
« Previous Day
Next Day »
Daily Weekly Monthly Yearly Custom
  High: Low: Average:
Temperature: 71.4 °F 55.2 °F 61.2 °F
Dew Point: 55.8 °F 48.8 °F 53.5 °F
Humidity: 91 % 48 % 77 %
Wind Speed: 18.0 mph 0.0 mph 7.4 mph
Wind Gust: 25.0 mph - -
Wind:- - WNW
Pressure: 30.00 in 29.90 in -
Precipitation: 0.00 in    
Historical Graphs
 
 
Tabular Data for July 1, 2017
Time Temperature Dew Point Pressure Wind Wind Speed Wind Gust Humidity Rainfall Rate (Hourly) solar Conditions
00:03 56.5 °F 53.0 °F 29.90 in NNW 2.0 mph 9.0 mph 88 % 0.00 in 0 W/m2
00:08 56.5 °F 52.7 °F 29.90 in NW 4.0 mph 9.0 mph 87 % 0.00 in 0 W/m2
00:13 56.5 °F 53.0 °F 29.90 in NW 4.0 mph 8.0 mph 88 % 0.00 in 0 W/m2
00:18 56.5 °F 53.0 °F 29.90 in NW 4.0 mph 10.0 mph 88 % 0.00 in 0 W/m2
00:23 56.5 °F 53.0 °F 29.91 in NW 4.0 mph 10.0 mph 88 % 0.00 in 0 W/m2
00:28 56.5 °F 53.0 °F 29.91 in NW 4.0 mph 10.0 mph 88 % 0.00 in 0 W/m2
00:33 56.3 °F 52.8 °F 29.91 in NW 5.0 mph 10.0 mph 88 % 0.00 in 0 W/m2
00:39 56.3 °F 52.8 °F 29.91 in NW 6.0 mph 11.0 mph 88 % 0.00 in 0 W/m2
00:44 56.1 °F 52.9 °F 29.91 in NW 7.0 mph 13.0 mph 89 % 0.00 in 0 W/m2
00:49 56.1 °F 52.9 °F 29.91 in NW 6.0 mph 13.0 mph 89 % 0.00 in 0 W/m2
00:54 56.1 °F 52.9 °F 29.90 in NW 5.0 mph 10.0 mph 89 % 0.00 in 0 W/m2
00:59 56.1 °F 52.9 °F 29.90 in NW 5.0 mph 9.0 mph 89 % 0.00 in 0 W/m2
01:04 56.1 °F 52.9 °F 29.91 in NNW 5.0 mph 9.0 mph 89 % 0.00 in 0 W/m2
01:09 56.1 °F 52.9 °F 29.91 in NNW 5.0 mph 11.0 mph 89 % 0.00 in 0 W/m2
01:14 55.9 °F 52.7 °F 29.91 in NNW 6.0 mph 11.0 mph 89 % 0.00 in 0 W/m2
01:19 55.9 °F 52.7 °F 29.91 in NNW 6.0 mph 12.0 mph 89 % 0.00 in 0 W/m2
01:24 55.9 °F 52.7 °F 29.91 in NNW 7.0 mph 12.0 mph 89 % 0.00 in 0 W/m2
01:29 55.9 °F 53.0 °F 29.91 in NNW 6.0 mph 12.0 mph 90 % 0.00 in 0 W/m2
01:34 55.9 °F 53.0 °F 29.91 in NNW 7.0 mph 13.0 mph 90 % 0.00 in 0 W/m2
01:39 55.9 °F 53.0 °F 29.92 in NW 6.0 mph 13.0 mph 90 % 0.00 in 0 W/m2
01:44 55.9 °F 52.7 °F 29.92 in NW 5.0 mph 9.0 mph 89 % 0.00 in 0 W/m2
01:49 55.9 °F 53.0 °F 29.92 in NW 5.0 mph 10.0 mph 90 % 0.00 in 0 W/m2
01:54 55.8 °F 52.9 °F 29.92 in NW 4.0 mph 10.0 mph 90 % 0.00 in 0 W/m2
01:59 55.8 °F 52.9 °F 29.92 in NW 5.0 mph 11.0 mph 90 % 0.00 in 0 W/m2
02:04 55.8 °F 52.9 °F 29.92 in NW 6.0 mph 11.0 mph 90 % 0.00 in 0 W/m2
02:09 55.8 °F 52.9 °F 29.92 in NW 4.0 mph 8.0 mph 90 % 0.00 in 0 W/m2
02:14 55.8 °F 52.9 °F 29.92 in NNW 3.0 mph 8.0 mph 90 % 0.00 in 0 W/m2
02:19 55.8 °F 52.9 °F 29.92 in NNW 3.0 mph 8.0 mph 90 % 0.00 in 0 W/m2
02:24 55.8 °F 52.9 °F 29.92 in NW 3.0 mph 8.0 mph 90 % 0.00 in 0 W/m2
02:29 55.6 °F 52.7 °F 29.92 in NW 4.0 mph 8.0 mph 90 % 0.00 in 0 W/m2
02:34 55.6 °F 52.7 °F 29.92 in NW 3.0 mph 8.0 mph 90 % 0.00 in 0 W/m2
02:39 55.6 °F 52.7 °F 29.92 in NW 2.0 mph 6.0 mph 90 % 0.00 in 0 W/m2
02:44 55.6 °F 52.4 °F 29.92 in NW 2.0 mph 6.0 mph 89 % 0.00 in 0 W/m2
02:49 55.6 °F 52.4 °F 29.92 in NNW 1.0 mph 6.0 mph 89 % 0.00 in 0 W/m2
02:54 55.6 °F 52.7 °F 29.92 in NNW 2.0 mph 6.0 mph 90 % 0.00 in 0 W/m2
02:59 55.6 °F 52.4 °F 29.93 in NW 3.0 mph 6.0 mph 89 % 0.00 in 0 W/m2
03:04 55.6 °F 52.7 °F 29.93 in NW 3.0 mph 7.0 mph 90 % 0.00 in 0 W/m2
03:09 55.6 °F 52.4 °F 29.93 in WNW 4.0 mph 7.0 mph 89 % 0.00 in 0 W/m2
03:14 55.6 °F 52.4 °F 29.93 in WNW 4.0 mph 6.0 mph 89 % 0.00 in 0 W/m2
03:19 55.6 °F 52.7 °F 29.93 in WNW 3.0 mph 7.0 mph 90 % 0.00 in 0 W/m2
03:25 55.4 °F 52.5 °F 29.93 in WNW 3.0 mph 7.0 mph 90 % 0.00 in 0 W/m2
03:30 55.4 °F 52.5 °F 29.93 in WNW 4.0 mph 7.0 mph 90 % 0.00 in 0 W/m2
03:35 55.4 °F 52.5 °F 29.93 in WNW 3.0 mph 7.0 mph 90 % 0.00 in 0 W/m2
03:40 55.2 °F 52.3 °F 29.93 in NW 3.0 mph 7.0 mph 90 % 0.00 in 0 W/m2
03:45 55.2 °F 52.3 °F 29.93 in WNW 4.0 mph 7.0 mph 90 % 0.00 in 0 W/m2
03:50 55.2 °F 52.3 °F 29.93 in NW 3.0 mph 7.0 mph 90 % 0.00 in 0 W/m2
03:55 55.2 °F 52.3 °F 29.93 in NW 2.0 mph 6.0 mph 90 % 0.00 in 0 W/m2
04:00 55.2 °F 52.3 °F 29.93 in NW 3.0 mph 6.0 mph 90 % 0.00 in 0 W/m2
04:05 55.2 °F 52.3 °F 29.93 in WNW 3.0 mph 6.0 mph 90 % 0.00 in 0 W/m2
04:10 55.2 °F 52.3 °F 29.94 in WNW 4.0 mph 8.0 mph 90 % 0.00 in 0 W/m2
04:15 55.2 °F 52.3 °F 29.94 in NW 5.0 mph 9.0 mph 90 % 0.00 in 0 W/m2
04:17 55.2 °F 52.3 °F 29.94 in NW 5.0 mph 9.0 mph 90 % 0.00 in 0 W/m2
04:22 55.2 °F 52.3 °F 29.94 in NW 5.0 mph 9.0 mph 90 % 0.00 in 0 W/m2
04:27 55.2 °F 52.3 °F 29.94 in NW 4.0 mph 9.0 mph 90 % 0.00 in 0 W/m2
04:32 55.2 °F 52.3 °F 29.94 in NNW 3.0 mph 9.0 mph 90 % 0.00 in 0 W/m2
04:37 55.2 °F 52.3 °F 29.94 in NNW 3.0 mph 7.0 mph 90 % 0.00 in 0 W/m2
04:42 55.2 °F 52.0 °F 29.94 in NW 3.0 mph 7.0 mph 89 % 0.00 in 0 W/m2
04:47 55.2 °F 52.0 °F 29.94 in NW 2.0 mph 7.0 mph 89 % 0.00 in 0 W/m2
04:52 55.2 °F 52.0 °F 29.94 in NNW 1.0 mph 4.0 mph 89 % 0.00 in 0 W/m2
04:57 55.2 °F 52.0 °F 29.94 in NNW 1.0 mph 5.0 mph 89 % 0.00 in 0 W/m2
05:02 55.2 °F 52.0 °F 29.95 in NNW 1.0 mph 5.0 mph 89 % 0.00 in 0 W/m2
05:07 55.2 °F 52.3 °F 29.95 in NNW 1.0 mph 5.0 mph 90 % 0.00 in 5 W/m2
05:12 55.2 °F 52.3 °F 29.95 in Calm   4.0 mph 90 % 0.00 in 5 W/m2
05:17 55.2 °F 52.3 °F 29.95 in Calm   3.0 mph 90 % 0.00 in 9 W/m2
05:22 55.2 °F 52.3 °F 29.95 in Calm   3.0 mph 90 % 0.00 in 11 W/m2
05:27 55.2 °F 52.3 °F 29.95 in Calm   1.0 mph 90 % 0.00 in 11 W/m2
05:32 55.2 °F 52.3 °F 29.95 in Calm   4.0 mph 90 % 0.00 in 12 W/m2
05:37 55.2 °F 52.3 °F 29.95 in Calm   5.0 mph 90 % 0.00 in 16 W/m2
05:42 55.2 °F 52.3 °F 29.95 in NNW 1.0 mph 5.0 mph 90 % 0.00 in 18 W/m2
05:47 55.2 °F 52.0 °F 29.95 in NNW 1.0 mph 5.0 mph 89 % 0.00 in 23 W/m2
05:52 55.4 °F 52.5 °F 29.95 in Calm   2.0 mph 90 % 0.00 in 26 W/m2
05:57 55.6 °F 52.7 °F 29.95 in Calm     90 % 0.00 in 33 W/m2
06:02 55.6 °F 53.0 °F 29.95 in Calm     91 % 0.00 in 37 W/m2
06:07 55.6 °F 53.0 °F 29.95 in Calm     91 % 0.00 in 42 W/m2
06:12 55.6 °F 53.0 °F 29.96 in Calm   2.0 mph 91 % 0.00 in 49 W/m2
06:17 55.6 °F 53.0 °F 29.96 in NNW 1.0 mph 2.0 mph 91 % 0.00 in 53 W/m2
06:22 55.6 °F 53.0 °F 29.96 in NNW 1.0 mph 2.0 mph 91 % 0.00 in 58 W/m2
06:27 55.8 °F 53.2 °F 29.97 in Calm   2.0 mph 91 % 0.00 in 62 W/m2
06:32 55.9 °F 53.4 °F 29.97 in Calm     91 % 0.00 in 63 W/m2
06:37 55.9 °F 53.4 °F 29.97 in Calm   6.0 mph 91 % 0.00 in 65 W/m2
06:42 55.9 °F 53.0 °F 29.97 in NNW 1.0 mph 6.0 mph 90 % 0.00 in 65 W/m2
06:47 56.1 °F 53.2 °F 29.97 in NNW 2.0 mph 5.0 mph 90 % 0.00 in 77 W/m2
06:52 56.3 °F 53.1 °F 29.97 in NNW 1.0 mph 5.0 mph 89 % 0.00 in 88 W/m2
06:57 56.5 °F 53.3 °F 29.97 in NNW 2.0 mph 5.0 mph 89 % 0.00 in 91 W/m2
07:30 57.3 °F 52.8 °F 29.97 in WNW 7.0 mph 7.0 mph 85 % 0.00 in 101 W/m2
07:45 57.7 °F 53.2 °F 29.97 in WNW 5.0 mph 5.0 mph 85 % 0.00 in 113 W/m2
08:00 58.3 °F 53.5 °F 29.97 in WNW 6.0 mph 6.0 mph 84 % 0.00 in 328 W/m2
08:15 60.3 °F 53.4 °F 29.97 in West 7.0 mph 7.0 mph 78 % 0.00 in 426 W/m2
08:30 62.8 °F 53.3 °F 29.97 in West 9.0 mph 9.0 mph 71 % 0.00 in 476 W/m2
08:45 64.8 °F 54.0 °F 29.98 in WNW 18.0 mph 18.0 mph 68 % 0.00 in 594 W/m2
09:00 65.4 °F 55.0 °F 29.98 in WNW 13.0 mph 13.0 mph 69 % 0.00 in 400 W/m2
09:18 63.1 °F 54.7 °F 29.99 in NW 9.0 mph 9.0 mph 74 % 0.00 in 98 W/m2
09:23 63.0 °F 54.9 °F 29.99 in WNW 8.0 mph 15.0 mph 75 % 0.00 in 95 W/m2
09:28 62.4 °F 55.1 °F 29.99 in WNW 8.0 mph 15.0 mph 77 % 0.00 in 91 W/m2
09:33 61.9 °F 54.9 °F 29.99 in WNW 9.0 mph 15.0 mph 78 % 0.00 in 79 W/m2
09:38 61.5 °F 54.9 °F 29.99 in WNW 9.0 mph 15.0 mph 79 % 0.00 in 120 W/m2
09:43 61.2 °F 54.9 °F 29.99 in WNW 7.0 mph 15.0 mph 80 % 0.00 in 156 W/m2
09:48 61.2 °F 55.3 °F 29.99 in WNW 6.0 mph 10.0 mph 81 % 0.00 in 128 W/m2
09:53 61.2 °F 55.6 °F 29.99 in WNW 7.0 mph 11.0 mph 82 % 0.00 in 120 W/m2
09:58 60.8 °F 55.3 °F 29.99 in West 8.0 mph 14.0 mph 82 % 0.00 in 123 W/m2
10:03 60.6 °F 55.1 °F 29.99 in West 9.0 mph 14.0 mph 82 % 0.00 in 127 W/m2
10:08 60.4 °F 54.9 °F 29.99 in West 10.0 mph 19.0 mph 82 % 0.00 in 113 W/m2
10:13 60.3 °F 55.1 °F 29.99 in West 10.0 mph 19.0 mph 83 % 0.00 in 167 W/m2
10:18 60.3 °F 55.1 °F 29.99 in West 9.0 mph 15.0 mph 83 % 0.00 in 156 W/m2
10:23 60.3 °F 55.1 °F 29.99 in West 9.0 mph 15.0 mph 83 % 0.00 in 120 W/m2
10:29 60.3 °F 55.4 °F 29.99 in WNW 8.0 mph 14.0 mph 84 % 0.00 in 104 W/m2
10:34 60.1 °F 55.2 °F 29.99 in West 9.0 mph 16.0 mph 84 % 0.00 in 127 W/m2
10:39 59.7 °F 54.9 °F 30.00 in West 11.0 mph 16.0 mph 84 % 0.00 in 132 W/m2
10:44 59.4 °F 54.5 °F 30.00 in West 11.0 mph 16.0 mph 84 % 0.00 in 116 W/m2
10:49 59.4 °F 54.8 °F 29.99 in West 10.0 mph 16.0 mph 85 % 0.00 in 160 W/m2
10:54 59.4 °F 54.8 °F 29.99 in West 9.0 mph 14.0 mph 85 % 0.00 in 116 W/m2
10:59 59.4 °F 54.5 °F 30.00 in West 9.0 mph 14.0 mph 84 % 0.00 in 111 W/m2
11:04 59.4 °F 54.5 °F 29.99 in West 9.0 mph 14.0 mph 84 % 0.00 in 118 W/m2
11:09 59.4 °F 54.5 °F 29.99 in West 8.0 mph 13.0 mph 84 % 0.00 in 107 W/m2
11:14 59.4 °F 54.5 °F 29.99 in West 9.0 mph 13.0 mph 84 % 0.00 in 137 W/m2
11:19 59.4 °F 54.5 °F 30.00 in West 8.0 mph 13.0 mph 84 % 0.00 in 174 W/m2
11:24 59.2 °F 54.0 °F 30.00 in West 8.0 mph 13.0 mph 83 % 0.00 in 199 W/m2
11:29 59.4 °F 54.2 °F 30.00 in West 9.0 mph 14.0 mph 83 % 0.00 in 218 W/m2
11:34 59.5 °F 54.4 °F 30.00 in West 8.0 mph 14.0 mph 83 % 0.00 in 163 W/m2
11:39 59.7 °F 54.2 °F 30.00 in West 8.0 mph 14.0 mph 82 % 0.00 in 216 W/m2
11:44 59.7 °F 54.2 °F 30.00 in West 10.0 mph 16.0 mph 82 % 0.00 in 323 W/m2
11:49 59.9 °F 54.7 °F 30.00 in West 9.0 mph 16.0 mph 83 % 0.00 in 206 W/m2
11:54 59.9 °F 54.4 °F 30.00 in West 8.0 mph 12.0 mph 82 % 0.00 in 218 W/m2
11:59 59.7 °F 54.5 °F 30.00 in WSW 8.0 mph 12.0 mph 83 % 0.00 in 260 W/m2
12:04 59.7 °F 54.2 °F 30.00 in WSW 7.0 mph 12.0 mph 82 % 0.00 in 304 W/m2
12:09 60.3 °F 54.4 °F 29.99 in West 8.0 mph 12.0 mph 81 % 0.00 in 329 W/m2
12:14 60.4 °F 54.2 °F 29.99 in West 8.0 mph 13.0 mph 80 % 0.00 in 371 W/m2
12:19 60.8 °F 54.2 °F 29.99 in WSW 9.0 mph 15.0 mph 79 % 0.00 in 408 W/m2
12:24 61.2 °F 54.2 °F 30.00 in WSW 10.0 mph 18.0 mph 78 % 0.00 in 353 W/m2
12:29 61.5 °F 54.9 °F 30.00 in WSW 8.0 mph 18.0 mph 79 % 0.00 in 304 W/m2
12:34 61.9 °F 54.2 °F 30.00 in West 8.0 mph 16.0 mph 76 % 0.00 in 352 W/m2
12:39 62.2 °F 54.6 °F 30.00 in West 10.0 mph 19.0 mph 76 % 0.00 in 432 W/m2
12:44 62.8 °F 54.7 °F 29.99 in West 12.0 mph 21.0 mph 75 % 0.00 in 1260 W/m2
12:49 63.1 °F 54.3 °F 29.99 in West 12.0 mph 21.0 mph 73 % 0.00 in 1267 W/m2
12:51 63.3 °F 54.9 °F 29.99 in West 11.0 mph 21.0 mph 74 % 0.00 in 1164 W/m2
12:56 64.4 °F 55.2 °F 29.99 in West 10.0 mph 18.0 mph 72 % 0.00 in 517 W/m2
13:01 64.8 °F 54.3 °F 29.99 in West 10.0 mph 18.0 mph 69 % 0.00 in 362 W/m2
13:06 64.8 °F 54.7 °F 29.99 in West 10.0 mph 19.0 mph 70 % 0.00 in 369 W/m2
13:11 64.9 °F 54.5 °F 29.99 in West 10.0 mph 19.0 mph 69 % 0.00 in 1079 W/m2
13:16 65.3 °F 54.1 °F 29.99 in West 12.0 mph 21.0 mph 67 % 0.00 in 972 W/m2
13:21 65.7 °F 54.4 °F 29.99 in West 12.0 mph 21.0 mph 67 % 0.00 in 947 W/m2
13:26 66.0 °F 54.7 °F 29.98 in West 12.0 mph 20.0 mph 67 % 0.00 in 983 W/m2
13:31 66.6 °F 54.8 °F 29.98 in West 13.0 mph 20.0 mph 66 % 0.00 in 919 W/m2
13:36 66.9 °F 54.3 °F 29.98 in West 11.0 mph 20.0 mph 64 % 0.00 in 921 W/m2
13:41 67.3 °F 53.8 °F 29.98 in West 11.0 mph 19.0 mph 62 % 0.00 in 932 W/m2
13:46 67.3 °F 53.8 °F 29.98 in West 13.0 mph 23.0 mph 62 % 0.00 in 940 W/m2
13:51 66.9 °F 53.9 °F 29.98 in WSW 12.0 mph 23.0 mph 63 % 0.00 in 949 W/m2
13:56 66.7 °F 53.7 °F 29.98 in WSW 11.0 mph 22.0 mph 63 % 0.00 in 949 W/m2
14:01 67.1 °F 54.9 °F 29.98 in West 9.0 mph 16.0 mph 65 % 0.00 in 1016 W/m2
14:06 67.6 °F 54.6 °F 29.98 in West 9.0 mph 16.0 mph 63 % 0.00 in 953 W/m2
14:11 67.8 °F 53.4 °F 29.98 in West 10.0 mph 16.0 mph 60 % 0.00 in 911 W/m2
14:16 68.4 °F 54.4 °F 29.97 in WSW 9.0 mph 18.0 mph 61 % 0.00 in 896 W/m2
14:21 68.5 °F 53.6 °F 29.97 in WSW 9.0 mph 18.0 mph 59 % 0.00 in 803 W/m2
14:26 69.1 °F 54.1 °F 29.97 in West 10.0 mph 21.0 mph 59 % 0.00 in 916 W/m2
14:31 68.9 °F 51.6 °F 29.97 in West 11.0 mph 21.0 mph 54 % 0.00 in 854 W/m2
14:36 69.3 °F 50.9 °F 29.97 in West 11.0 mph 21.0 mph 52 % 0.00 in 874 W/m2
14:41 69.4 °F 49.4 °F 29.97 in West 10.0 mph 19.0 mph 49 % 0.00 in 847 W/m2
14:46 69.1 °F 49.1 °F 29.97 in West 11.0 mph 19.0 mph 49 % 0.00 in 858 W/m2
14:51 68.7 °F 48.8 °F 29.97 in WSW 11.0 mph 20.0 mph 49 % 0.00 in 900 W/m2
14:57 69.3 °F 49.3 °F 29.97 in West 10.0 mph 20.0 mph 49 % 0.00 in 907 W/m2
15:01 69.6 °F 49.6 °F 29.97 in West 11.0 mph 19.0 mph 49 % 0.00 in 329 W/m2
15:02 69.6 °F 49.6 °F 29.97 in West 11.0 mph 19.0 mph 49 % 0.00 in 329 W/m2
15:12 69.4 °F 49.4 °F 29.97 in West 11.0 mph 20.0 mph 49 % 0.00 in 563 W/m2
15:17 69.3 °F 49.8 °F 29.96 in West 11.0 mph 20.0 mph 50 % 0.00 in 831 W/m2
15:22 69.6 °F 49.1 °F 29.97 in WSW 11.0 mph 20.0 mph 48 % 0.00 in 846 W/m2
15:27 69.8 °F 49.2 °F 29.96 in WSW 11.0 mph 19.0 mph 48 % 0.00 in 891 W/m2
15:32 69.8 °F 49.8 °F 29.96 in WSW 12.0 mph 21.0 mph 49 % 0.00 in 330 W/m2
15:37 69.3 °F 50.4 °F 29.96 in WSW 12.0 mph 21.0 mph 51 % 0.00 in 459 W/m2
15:42 69.3 °F 50.4 °F 29.96 in West 12.0 mph 22.0 mph 51 % 0.00 in 503 W/m2
15:47 69.3 °F 49.8 °F 29.96 in West 13.0 mph 22.0 mph 50 % 0.00 in 1018 W/m2
15:52 70.0 °F 50.5 °F 29.96 in West 13.0 mph 23.0 mph 50 % 0.00 in 1053 W/m2
15:57 70.2 °F 50.6 °F 29.96 in West 13.0 mph 23.0 mph 50 % 0.00 in 281 W/m2
16:03 70.0 °F 51.5 °F 29.96 in West 11.0 mph 20.0 mph 52 % 0.00 in 914 W/m2
16:08 70.7 °F 52.2 °F 29.96 in West 10.0 mph 18.0 mph 52 % 0.00 in 868 W/m2
16:13 71.2 °F 52.7 °F 29.96 in West 10.0 mph 18.0 mph 52 % 0.00 in 793 W/m2
16:18 71.4 °F 52.9 °F 29.96 in West 11.0 mph 18.0 mph 52 % 0.00 in 800 W/m2
16:23 71.2 °F 53.2 °F 29.96 in West 11.0 mph 18.0 mph 53 % 0.00 in 749 W/m2
16:28 71.2 °F 53.2 °F 29.95 in West 12.0 mph 23.0 mph 53 % 0.00 in 675 W/m2
16:33 70.9 °F 53.4 °F 29.96 in West 12.0 mph 23.0 mph 54 % 0.00 in 274 W/m2
16:38 70.9 °F 53.9 °F 29.95 in West 11.0 mph 20.0 mph 55 % 0.00 in 659 W/m2
16:44 70.7 °F 53.7 °F 29.95 in West 11.0 mph 20.0 mph 55 % 0.00 in 260 W/m2
16:49 70.3 °F 53.4 °F 29.95 in West 12.0 mph 20.0 mph 55 % 0.00 in 221 W/m2
16:54 70.0 °F 54.0 °F 29.95 in West 11.0 mph 20.0 mph 57 % 0.00 in 241 W/m2
16:59 69.4 °F 53.1 °F 29.95 in West 11.0 mph 21.0 mph 56 % 0.00 in 197 W/m2
17:04 69.1 °F 53.7 °F 29.95 in West 11.0 mph 21.0 mph 58 % 0.00 in 213 W/m2
17:09 68.7 °F 53.3 °F 29.95 in West 11.0 mph 20.0 mph 58 % 0.00 in 299 W/m2
17:14 68.5 °F 53.2 °F 29.95 in West 11.0 mph 20.0 mph 58 % 0.00 in 320 W/m2
17:19 68.5 °F 53.6 °F 29.95 in West 11.0 mph 18.0 mph 59 % 0.00 in 232 W/m2
17:24 68.4 °F 53.5 °F 29.95 in West 11.0 mph 18.0 mph 59 % 0.00 in 202 W/m2
17:29 68.2 °F 53.8 °F 29.95 in West 11.0 mph 21.0 mph 60 % 0.00 in 163 W/m2
17:34 68.0 °F 53.6 °F 29.95 in West 11.0 mph 21.0 mph 60 % 0.00 in 134 W/m2
17:39 67.6 °F 53.7 °F 29.95 in West 11.0 mph 21.0 mph 61 % 0.00 in 163 W/m2
17:44 67.6 °F 54.2 °F 29.95 in West 9.0 mph 18.0 mph 62 % 0.00 in 179 W/m2
17:49 67.6 °F 53.7 °F 29.95 in West 9.0 mph 16.0 mph 61 % 0.00 in 199 W/m2
17:54 67.5 °F 53.5 °F 29.95 in WNW 11.0 mph 19.0 mph 61 % 0.00 in 123 W/m2
17:59 67.3 °F 53.8 °F 29.95 in West 10.0 mph 19.0 mph 62 % 0.00 in 97 W/m2
18:04 66.7 °F 53.3 °F 29.95 in West 10.0 mph 16.0 mph 62 % 0.00 in 139 W/m2
18:09 66.6 °F 53.6 °F 29.95 in West 10.0 mph 15.0 mph 63 % 0.00 in 144 W/m2
18:14 66.6 °F 54.0 °F 29.95 in West 9.0 mph 14.0 mph 64 % 0.00 in 165 W/m2
18:19 66.6 °F 54.0 °F 29.95 in West 9.0 mph 16.0 mph 64 % 0.00 in 176 W/m2
18:24 66.6 °F 54.0 °F 29.95 in WNW 10.0 mph 16.0 mph 64 % 0.00 in 271 W/m2
18:29 66.7 °F 54.2 °F 29.95 in WNW 9.0 mph 14.0 mph 64 % 0.00 in 320 W/m2
18:34 67.1 °F 54.5 °F 29.95 in WNW 9.0 mph 13.0 mph 64 % 0.00 in 320 W/m2
18:39 67.3 °F 54.3 °F 29.96 in WNW 10.0 mph 19.0 mph 63 % 0.00 in 415 W/m2
18:44 66.7 °F 53.7 °F 29.96 in WNW 11.0 mph 19.0 mph 63 % 0.00 in 118 W/m2
18:49 66.2 °F 53.7 °F 29.96 in West 10.0 mph 18.0 mph 64 % 0.00 in 109 W/m2
18:54 65.7 °F 53.6 °F 29.96 in WNW 10.0 mph 21.0 mph 65 % 0.00 in 91 W/m2
18:59 65.1 °F 53.9 °F 29.96 in WNW 10.0 mph 21.0 mph 67 % 0.00 in 84 W/m2
19:04 64.9 °F 53.7 °F 29.96 in WNW 9.0 mph 19.0 mph 67 % 0.00 in 181 W/m2
19:09 64.6 °F 53.8 °F 29.96 in WNW 10.0 mph 19.0 mph 68 % 0.00 in 192 W/m2
19:14 64.6 °F 53.8 °F 29.96 in West 9.0 mph 18.0 mph 68 % 0.00 in 142 W/m2
19:19 64.6 °F 54.2 °F 29.96 in West 7.0 mph 13.0 mph 69 % 0.00 in 144 W/m2
19:25 64.6 °F 54.2 °F 29.96 in West 8.0 mph 19.0 mph 69 % 0.00 in 151 W/m2
19:30 64.4 °F 54.0 °F 29.96 in West 11.0 mph 21.0 mph 69 % 0.00 in 178 W/m2
19:35 64.4 °F 54.0 °F 29.96 in West 13.0 mph 23.0 mph 69 % 0.00 in 225 W/m2
19:40 64.6 °F 54.2 °F 29.96 in West 14.0 mph 23.0 mph 69 % 0.00 in 241 W/m2
19:41 64.6 °F 54.2 °F 29.96 in West 14.0 mph 24.0 mph 69 % 0.00 in 241 W/m2
19:46 64.0 °F 53.7 °F 29.96 in West 14.0 mph 24.0 mph 69 % 0.00 in 70 W/m2
19:51 63.9 °F 54.3 °F 29.96 in WNW 13.0 mph 23.0 mph 71 % 0.00 in 181 W/m2
19:56 64.0 °F 54.4 °F 29.96 in WNW 11.0 mph 20.0 mph 71 % 0.00 in 141 W/m2
20:01 63.9 °F 54.3 °F 29.96 in West 10.0 mph 19.0 mph 71 % 0.00 in 90 W/m2
20:07 63.5 °F 54.3 °F 29.96 in West 10.0 mph 18.0 mph 72 % 0.00 in 56 W/m2
20:12 63.1 °F 54.3 °F 29.96 in West 10.0 mph 18.0 mph 73 % 0.00 in 70 W/m2
20:17 62.6 °F 54.6 °F 29.96 in West 10.0 mph 18.0 mph 75 % 0.00 in 83 W/m2
20:22 62.2 °F 54.6 °F 29.96 in West 9.0 mph 14.0 mph 76 % 0.00 in 70 W/m2
20:27 62.1 °F 54.8 °F 29.96 in West 8.0 mph 13.0 mph 77 % 0.00 in 49 W/m2
20:32 61.9 °F 54.9 °F 29.96 in West 7.0 mph 15.0 mph 78 % 0.00 in 58 W/m2
20:37 61.5 °F 54.9 °F 29.96 in West 8.0 mph 15.0 mph 79 % 0.00 in 58 W/m2
20:42 61.5 °F 54.9 °F 29.96 in West 8.0 mph 15.0 mph 79 % 0.00 in 54 W/m2
20:47 61.3 °F 54.8 °F 29.96 in West 9.0 mph 20.0 mph 79 % 0.00 in 54 W/m2
20:52 61.2 °F 54.9 °F 29.96 in West 10.0 mph 20.0 mph 80 % 0.00 in 56 W/m2
20:57 61.0 °F 54.8 °F 29.96 in West 12.0 mph 25.0 mph 80 % 0.00 in 47 W/m2
21:02 60.8 °F 54.9 °F 29.96 in West 12.0 mph 25.0 mph 81 % 0.00 in 33 W/m2
21:07 60.6 °F 54.8 °F 29.96 in West 11.0 mph 19.0 mph 81 % 0.00 in 28 W/m2
21:12 60.4 °F 54.9 °F 29.96 in WNW 10.0 mph 18.0 mph 82 % 0.00 in 21 W/m2
21:17 60.4 °F 54.9 °F 29.96 in WNW 9.0 mph 15.0 mph 82 % 0.00 in 16 W/m2
21:22 60.3 °F 55.1 °F 29.97 in West 8.0 mph 15.0 mph 83 % 0.00 in 16 W/m2
21:27 60.1 °F 54.9 °F 29.96 in West 9.0 mph 14.0 mph 83 % 0.00 in 11 W/m2
21:32 59.9 °F 55.1 °F 29.96 in West 9.0 mph 14.0 mph 84 % 0.00 in 11 W/m2
21:37 59.7 °F 54.9 °F 29.96 in West 8.0 mph 13.0 mph 84 % 0.00 in 9 W/m2
21:42 59.5 °F 55.0 °F 29.96 in West 7.0 mph 12.0 mph 85 % 0.00 in 5 W/m2
21:47 59.4 °F 54.8 °F 29.96 in West 8.0 mph 13.0 mph 85 % 0.00 in 5 W/m2
21:51 59.4 °F 54.8 °F 29.96 in West 8.0 mph 13.0 mph 85 % 0.00 in 0 W/m2
21:56 59.2 °F 55.0 °F 29.97 in West 8.0 mph 12.0 mph 86 % 0.00 in 0 W/m2
22:01 59.2 °F 55.0 °F 29.97 in West 7.0 mph 14.0 mph 86 % 0.00 in 0 W/m2
22:06 59.2 °F 55.0 °F 29.96 in West 7.0 mph 14.0 mph 86 % 0.00 in 0 W/m2
22:11 59.2 °F 55.0 °F 29.96 in West 7.0 mph 13.0 mph 86 % 0.00 in 0 W/m2
22:16 59.2 °F 55.0 °F 29.97 in West 6.0 mph 10.0 mph 86 % 0.00 in 0 W/m2
22:21 59.2 °F 55.0 °F 29.97 in WSW 5.0 mph 9.0 mph 86 % 0.00 in 0 W/m2
22:26 59.2 °F 55.0 °F 29.97 in WSW 5.0 mph 9.0 mph 86 % 0.00 in 0 W/m2
22:31 59.2 °F 55.0 °F 29.97 in West 3.0 mph 9.0 mph 86 % 0.00 in 0 W/m2
22:36 59.2 °F 55.0 °F 29.97 in West 2.0 mph 7.0 mph 86 % 0.00 in 0 W/m2
22:41 59.2 °F 55.0 °F 29.97 in WSW 2.0 mph 6.0 mph 86 % 0.00 in 0 W/m2
22:46 59.2 °F 55.0 °F 29.97 in WSW 2.0 mph 6.0 mph 86 % 0.00 in 0 W/m2
22:51 59.2 °F 55.0 °F 29.97 in WSW 3.0 mph 8.0 mph 86 % 0.00 in 0 W/m2
22:56 59.4 °F 55.2 °F 29.97 in WSW 6.0 mph 13.0 mph 86 % 0.00 in 0 W/m2
23:01 59.4 °F 55.2 °F 29.97 in West 7.0 mph 13.0 mph 86 % 0.00 in 0 W/m2
23:06 59.4 °F 55.2 °F 29.97 in West 7.0 mph 14.0 mph 86 % 0.00 in 0 W/m2
23:11 59.4 °F 55.2 °F 29.97 in West 7.0 mph 16.0 mph 86 % 0.00 in 0 W/m2
23:16 59.4 °F 55.5 °F 29.97 in West 7.0 mph 16.0 mph 87 % 0.00 in 0 W/m2
23:21 59.4 °F 55.5 °F 29.97 in West 6.0 mph 12.0 mph 87 % 0.00 in 0 W/m2
23:26 59.4 °F 55.5 °F 29.97 in West 5.0 mph 10.0 mph 87 % 0.00 in 0 W/m2
23:31 59.2 °F 55.3 °F 29.98 in West 4.0 mph 9.0 mph 87 % 0.00 in 0 W/m2
23:36 59.2 °F 55.3 °F 29.98 in WNW 6.0 mph 12.0 mph 87 % 0.00 in 0 W/m2
23:41 59.4 °F 55.8 °F 29.98 in West 7.0 mph 12.0 mph 88 % 0.00 in 0 W/m2
23:46 59.4 °F 55.8 °F 29.98 in West 8.0 mph 22.0 mph 88 % 0.00 in 0 W/m2
23:51 59.0 °F 54.8 °F 29.99 in WNW 10.0 mph 22.0 mph 86 % 0.00 in 0 W/m2
23:56 58.8 °F 54.0 °F 29.99 in NW 11.0 mph 21.0 mph 84 % 0.00 in 0 W/m2
Delerius-Weather
Compliments of Weather Underground - 2.25 mb

Data updates at regular intervals.